User: anonymous   Login
Location: Unspecified
(0.0000°N, 0.0000°E)
Time: 10:42:56
(UTC+00:00)
Language:

ORIGAMISAT-1 - Orbit

View from above orbital plane
View from above orbital plane
View from above satellite
View from above satellite

Ground track
Ground track

The orbit data is extracted from the following two-line orbital elements,

1 43933U 19003B   21342.86835386  .00018500  00000-0  55568-3 0  9990
2 43933  97.1644  18.3016 0014527 125.5108 234.7493 15.34365982160774
Epoch (UTC): 08 December 2021 20:50:25
Eccentricity: 0.0014527
inclination: 97.1644°
perigee height: 453 km
apogee height: 473 km
right ascension of ascending node: 18.3016°
argument of perigee: 125.5108°
revolutions per day: 15.34365982
mean anomaly at epoch: 234.7493°
orbit number at epoch: 16077

The dashed part of the orbit path shows where the satellite is in the earth's shadow,  

DLR